Jump to main content.


Dockets by Statute SDWA

(926 entries in this collection) Click for full-text searchSearch these

[prev] 1 2 3 4 5 6 7 8 9 10 [next]


08/31/2015ActiveSDWA-08-2015-0042 CORVETTE CENTER OF COLORADO SPRINGS
08/17/2015ActiveSDWA-08-2015-0041 BUFFALO VALLEY RESORT, INC., TETON RANGE RESORT, LLC, AND JAMIE MACKAY
08/12/2015ActiveSDWA-08-2015-0040 ARTZ EQUIPMENT, INC.
08/10/2015ActiveSDWA-08-2015-0035 CORPORATION OF THE PRESIDING BISHOIP OF THE CHURCH OF LATTER DAY SAINTS
08/05/2015ActiveSDWA-08-2015-0032 MACKAY INVESTMENTS, LLC. (JACKSON HOLE CAMPGROUND)
08/05/2015ActiveSDWA-08-2015-0033 USDA FOREST SERVICE, SHOSHONE NATIONAL FOREST (SINKS CANYON CAMPGROUND)
08/05/2015ActiveSDWA-08-2015-0034 WHITETAIL CREEK OUTFITTERS, INC.
07/24/2015ActiveSDWA-08-2015-0028 OGLALA SIOUX TRIBE (OGLALA RURAL WATER SYSTEM) - NORTHWEST HOUSING STANDPIPE
07/23/2015ActiveSDWA-08-2015-0027 TOWN OF LABARGE
07/13/2015ActiveSDWA-08-2015-0026 INTERMOUNTAIN RURAL ELECTRIC
07/09/2015ActiveSDWA-08-2015-0025 DEER MOUNTAIN FIRE DISTRICT #3 - COTOPAXI FIRE AND RESCUE
07/07/2015ActiveSDWA-04-2015-1000(b) Tri Global Holdings, LLC
07/06/2015ActiveSDWA-08-2015-0024 RIVERMEADOWS WATER DISTRICT, AND JOHN RYAN
06/22/2015ActiveSDWA-08-2015-0023 A-1 INVESTMENTS (BALD MOUNTAIN TRAILER COURT)
06/11/2015ActiveSDWA-08-2015-0020 RBD ENT, LLC.
06/11/2015ActiveSDWA-08-2015-0021 LOWER VALLEY ENERGY, INC. AND JOHN RYAN, OPERATOR
06/11/2015ActiveSDWA-08-2015-0022 TOWN OF FORT LARAMIE
06/08/2015ActiveSDWA-08-2015-0018 SHADY DELL-SOAPSTONE CAMPGROUND (USDA FOREST SERVICE, UINTA-WASATCH-CACHE NATIONAL FOREST)
05/27/2015ActiveSDWA-08-2015-0014 HIGH PLAINS MARINA, LLC.
05/27/2015ActiveSDWA-08-2015-0015 GIRL SCOUTS OF MONTANA AND WYOMING (CAMP SACAJAWEA)
05/04/2015ActiveSDWA-08-2015-0012 BRUSH CREEK, LLC.
04/20/2015ActiveSDWA-08-2015-0011 CITY OF POPLAR, MONTANA
04/02/2015ActiveSDWA-08-2015-0010 JEREMY AND AMY HANSON (A&J MOBILE HOME PARK WATER SYSTEM)
03/31/2015ClosedSDWA-10-2015-0078 Eielson Air Force Base, Alaska
03/31/2015ActiveSDWA-08-2015-0009 STONE GATE ESTATES IMPROVEMENT AND SERVICE DISTRICT and WESTON ENGINEERING
03/13/2015ActiveSDWA-08-2015-0008 PRAIRIE MOUNTAIN UTILITY, OPERATOR, AND GROS VENTRE AND ASSINIBOINE TRIBES OF THE FORT BELKNAP INDIAN COMMUNITY, OWNER, AGNES LEGGINS PUBLIC WATER SUPPLY
02/24/2015ActiveSDWA-08-2015-0007 A-1 INVESTMENTS
01/27/2015ActiveSDWA 06-2015-1205 George W. Jackson d/b/a Fort Jackson Mobile Estates
01/23/2015ActiveSDWA-02-2015-8401 Windward Passage/Holiday Inn Public Water System
01/22/2015ActiveSDWA-10-2014-0137 Estell Subdivision, Lot 2, Public Water System (AK#216902)
01/22/2015ActiveSDWA-08-2015-0006 ENCORE ENERGY PARTNERS OPERATING LLC.
01/01/2015ClosedSDWA-10-2015-0021 Essential Oil Research Farm, LLC d/b/a Young Living Lavender Farms
12/07/2014ActiveSDWA-08-2015-0003 SWEETWATER IMPROVEMENT AND SERVICE DISTRICT
12/05/2014ActiveSDWA 06-2015-1121 Chaparral Energy, LLC
12/05/2014ActiveSDWA 06-2015-1121 Chaparral Energy, LLC
12/01/2014ActiveSDWA-08-2015-0005 EDEN SALOON, INC.
11/18/2014ActiveSDWA-08-2015-0002 REATA PROPERTIES, LLC.
10/23/2014ActiveSDWA-04-2014-1004(b) L.A.W. Oil and Gas, LLC
10/23/2014ClosedSDWA-04-2014-1007(b) Whitney Oil & Gas Co., LLC
09/30/2014ActiveSDWA-08-2014-0056 TOWN OF LUSK, WYOMING
09/29/2014ActiveSDWA-08-2014-0052 TOWN OF ALBIN, WYOMING
09/29/2014ActiveSDWA-08-2014-0053 ASCENTIA REAL ESTATE INVESTMENT COMPANY
09/29/2014ClosedSDWA-08-2014-0054 SUNNY CARPET & UPHOLSTERY CLEANING, INC.
09/29/2014ActiveSDWA-08-2014-0055 TOWN OF PAVILLION
09/26/2014ActiveSDWA-08-2014-0050 WYOMING DEPARTMENT OF TRANSPORTATION TORRINGTON PORT OF ENTRY
09/26/2014ActiveSDWA-08-2014-0051 ASCENTIA REAL ESTATE INVESTMENT COMPANY AND CERTIFIED WATER SPECIALISTS, LLC.
09/25/2014ActiveSDWA-08-2014-0049 MAURICE STEWART (COUNTRY ESTATES MOBILE HOME PARK)
09/23/2014ActiveSDWA-08-2014-0045 PAINTER OUTPOST, LLC.
09/23/2014ActiveSDWA-08-2014-0046 SUBLETTE COUNTY ROAD AND BRIDGE
09/23/2014ClosedSDWA-08-2014-0047 U.S. DEPARTMENT OF THE INTERIOR, BUREAU OF INDIAN AFFAIRS (CROW AGENCY (TP01))
09/23/2014ActiveSDWA-08-2014-0048 BEAVERHEAD COUNTY JACKSON WATER AND/OR SEWER DISTRICT
09/22/2014ClosedSDWA-08-2014-0044 SCOTT AND SUZIE GRUNTMEIR (BALD MOUNTAIN TRAILER COURT)
09/17/2014ActiveSDWA-08-2014-0042 BEAVERHEAD COUNTY JACKSON WATER AND/OR SEWER DISTRICT
09/17/2014ActiveSDWA-08-2014-0043 LEISURE VALLEY, INC.
09/12/2014ActiveSDWA-08-2014-0041 TOWN OF PINEDALE
09/09/2014ClosedSDWA-02-2014-8401 United States Department of the Army
09/05/2014ClosedSDWA-08-2014-0037 CANON MARINE INC.
09/04/2014ClosedSDWA-08-2014-0036 CUSTER COUNTY ROAD & BRIDGE
09/04/2014ActiveSDWA-08-2014-0038 LT CAMPGROUNDS, LLC (DBA CUSTER/MOUNT RUSHMORE KOA)
09/03/2014ActiveSDWA-08-2014-0035 BIG COUNTRY, LLC AND JOHN TREFREN
08/19/2014ActiveSDWA-08-2014-0031 WARM SPRINGS WATER DISTRICT
08/18/2014ActiveSDWA-08-2014-0029 CITY OF SUNDANCE, WYOMING
08/07/2014ActiveSDWA-02-2014-8402 Emerald Beach Resort I Public Water System
08/07/2014ActiveSDWA-02-2014-8403 Emerald Beach Resort II Public Water System
08/07/2014ActiveSDWA-08-2014-0025 DONALD AND BETTY ROBERTS
08/07/2014ActiveSDWA-08-2014-0026 HYATTVFILLE SERVICE AND IMPROVEMENT DISTRICT
08/07/2014ActiveSDWA-08-2014-0027 PHIL JORDAN, OWNER/OPERATOR, KEYHOLE RESORT/MARINA
08/07/2014ActiveSDWA-08-2014-0028 CITY KIDS TO WILDERNESS PROJECT, INC.
07/24/2014ClosedSDWA-08-2014-0023 BITTERROOT GATEWAY MH AND RV PARK, LLC.
07/22/2014ClosedSDWA-08-2014-0022 HOBACK STORES, LLC.
07/18/2014ActiveSDWA-02-2014-8902 FDD, Inc.
07/11/2014ActiveSDWA-03-2014-0089 Dalel Daniel Kyser, SDWA, Complaint
07/07/2014ActiveSDWA-08-2014-0021 SIGMA-ALDRICH RTC, INC.
06/30/2014ActiveSDWA-03-2014-0015 David T. Mathews, SDWA. complaint
06/30/2014ActiveSDWA-03-2014-0015DS Shenandoah Utility Services, SDWA, complaint,
06/30/2014ActiveSDWA-08-2014-0018 LAMBERT COUNTY SEWER AND WATER DISTRICT
06/30/2014ActiveSDWA-08-2014-0019 JOHNSON COUNTY MOOSE LODGE #2675
06/30/2014ActiveSDWA-08-2014-0020 EVERGREEN PROPERTIES LLC. and RANDALL SPENCER
06/24/2014ClosedSDWA-04-2014-1003(b) SWO & ISM, LLC
06/19/2014ClosedSDWA-08-2014-0017 PRAIRIE MOUNTAIN UTILITY, OPERATOR, AND GROS VENTRE AND ASSINIBOINE TRIBES OF THE FORT BELKNAP INDIAN COMMUNITY, OWNER
LODGEPOLE HOUSING PUBLIC WATER SUPPLY
06/17/2014ActiveSDWA-03-2014-0087 Dale Daniel Kyser, SDWA, Complaint
06/17/2014ActiveSDWA-03-2014-0089 Dale Daniel Kyser, SDWA, Complaint
06/16/2014ActiveSDWA-08-2014-0016 LINDA AND DAVID CAPPS AND WESTON ENGINEERING, INC.
05/21/2014ActiveSDWA-08-2014-0015 BUFFALO VALLEY WATER DISTRICT
04/30/2014ActiveSDWA-08-2014-0013 HR CAMP FOUNDATION
04/30/2014ActiveSDWA-08-2014-0014 EVANS LAND AND CATTLE CO., INC.- EVANS MOBILE HOME COURT PUBLIC WATER SYSTEM
03/31/2014ActiveSDWA-08-2014-0012 TOWN OF HARTVILLE, WY
03/27/2014ActiveSDWA-08-2014-0011 TOWN OF EDGERTON
03/25/2014ActiveSDWA-08-2014-0010 BIG VALLEY AND CROSSED ARROWS IMPROVEMENT DISTRICT
03/21/2014ClosedSDWA-02-2014-8901 Village of Lloyd Harbor (Highway Garage)
03/20/2014ActiveSDWA-08-2014-0009 CAMECO RESOURCES (POWER RESOURCES/SMITH RANCH PWS)
03/13/2014ClosedSDWA-04-2014-1001(b) Logsdon Valley Oil Company, Inc.
03/13/2014ClosedSDWA-04-2014-1002(b) Greathouse Well Services, Inc.
03/07/2014ActiveSDWA-08-2014-0008 MOUNTAIN VILLAGE PARKS, INC.
DIANA and DANIEL ALEXANDER, OWNERS and/or OPERATORS
02/04/2014ClosedSDWA-04-2013-1011(b) Williams' Oil Company, Inc.
01/30/2014ClosedSDWA-08-2014-0007 HOBACK STORES
01/21/2014ActiveSDWA-08-2014-0005 LEWIS MOBILE HOME PARK
01/21/2014ClosedSDWA-08-2014-0006 MARK SPARKS, OWNER; COOPER SUBDIVISION MOBILE HOME PARK
01/17/2014ClosedSDWA-10-2014-0027 National Park Service-US Dept. of the Interior
01/17/2014ClosedSDWA-08-2014-0004 TOWN OF GRANGER

(926 entries in this collection)
[prev] 1 2 3 4 5 6 7 8 9 10 [next]

Local Navigation




Jump to main content.